EHI
8 10 17 23 24 23 24 27 30 30 29 24 17 11 6 2 0 0 0 0 0 0 0 0 0 0 0 0 0 0 0 0 0 0 0 0 0 0 0 0 0 0 0
16 16 23 30 30 29 27 25 25 23 21 16 11 7 3 1 0 0 0 0 0 0 0 0 0 0 0 0 0 0 0 0 0 0 0 0 0 0 0 0 0 0 0
32 27 30 38 39 35 31 24 19 15 12 9 6 2 0 0 0 0 0 0 0 0 0 0 0 0 0 0 0 0 0 0 0 0 0 0 0 0 0 0 0 0 0
44 37 38 45 45 39 31 23 18 13 8 6 4 1 0 0 0 0 0 0 0 0 0 0 0 0 0 0 0 0 0 0 0 0 0 0 0 0 0 0 0 0 0
47 42 44 51 50 40 29 21 17 12 7 3 2 0 0 0 0 0 0 0 0 0 0 0 0 0 0 0 0 0 0 0 0 0 0 0 0 0 0 0 0 0 0
50 46 51 58 53 40 29 20 16 11 6 3 1 0 0 0 0 0 0 0 0 0 0 0 0 0 0 0 0 0 0 0 0 0 0 0 0 0 0 0 0 0 0
58 53 57 61 54 42 30 21 15 10 6 3 2 1 0 0 0 0 0 0 0 0 0 0 0 0 0 0 0 0 0 0 0 0 0 0 0 0 0 0 0 0 0
65 60 58 59 52 42 33 21 13 8 5 3 2 1 0 0 0 0 0 0 0 0 0 0 0 0 0 0 0 0 0 0 0 0 0 0 0 0 0 0 0 0 0
66 63 59 55 47 38 30 19 9 5 3 2 2 1 0 0 0 0 0 0 0 0 0 0 0 0 0 0 0 0 0 0 0 0 0 0 0 0 0 0 0 0 0
65 62 58 53 43 32 22 13 6 2 1 1 1 0 0 0 0 0 0 0 0 0 0 0 0 0 0 0 0 0 0 0 0 0 0 0 0 0 0 0 0 0 0
66 60 55 50 42 30 17 8 4 2 1 0 0 0 0 0 0 0 0 0 0 0 0 0 0 0 0 0 0 0 0 0 0 0 0 0 0 0 0 0 0 0 0
66 59 50 43 37 28 17 8 5 3 1 0 0 0 0 0 0 0 0 0 0 0 0 0 0 0 0 0 0 0 0 0 0 0 0 0 0 0 0 0 0 0 0
63 57 46 37 30 23 16 10 8 5 2 0 0 0 0 0 0 0 0 0 0 0 0 0 0 0 0 0 0 0 0 0 0 0 0 0 0 0 0 0 0 0 0
54 50 43 34 26 17 12 10 8 5 1 0 0 0 0 0 0 0 0 0 0 0 0 0 0 0 0 0 0 0 0 0 0 0 0 0 0 0 0 0 0 0 0
41 42 39 32 23 14 8 7 6 4 1 0 0 0 0 0 0 0 0 0 0 0 0 0 0 0 0 0 0 0 0 0 0 0 0 0 0 0 0 0 0 0 0
32 33 34 29 20 13 8 6 5 3 1 0 0 0 0 0 0 0 0 0 0 0 0 0 0 0 0 0 0 0 0 0 0 0 0 0 0 0 0 0 0 0 0
28 27 27 24 17 12 9 8 6 3 1 0 0 0 0 0 0 0 0 0 0 0 0 0 0 0 0 0 0 0 0 0 0 0 0 0 0 0 0 0 0 0 0
30 24 20 18 15 12 10 8 6 4 1 0 0 0 0 0 0 0 0 0 0 0 0 0 0 0 0 0 0 0 0 0 0 0 0 0 0 0 0 0 0 0 0
32 24 17 14 12 12 10 7 5 3 1 0 0 0 0 0 0 0 0 0 0 0 0 0 0 0 0 0 0 0 0 0 0 0 0 0 0 0 0 0 0 0 0
32 26 20 17 11 8 7 6 3 1 0 0 0 0 0 0 0 0 0 0 0 0 0 0 0 0 0 0 0 0 0 0 0 0 0 0 0 0 0 0 0 0 0
31 27 23 19 13 9 7 5 3 1 0 0 0 0 1 0 0 0 0 0 0 0 0 0 0 0 0 0 0 0 0 0 0 0 0 0 0 0 0 0 0 0 0
31 28 23 20 17 13 9 6 3 1 0 0 0 0 0 0 0 0 0 0 0 0 0 0 0 0 0 0 0 0 0 0 0 0 0 0 0 0 0 0 0 0 0
32 28 24 22 19 14 10 7 3 1 1 1 1 0 0 1 2 1 0 0 0 0 0 0 0 0 0 0 0 0 0 0 0 0 0 0 0 0 0 0 0 0 0
29 26 24 24 20 14 10 6 4 3 2 2 2 1 0 1 2 1 0 0 0 0 0 0 0 0 0 0 0 0 0 0 0 0 0 0 0 0 0 0 0 0 0
22 21 21 22 19 13 9 6 3 3 3 3 3 1 0 0 1 1 1 0 0 0 0 0 0 0 0 0 0 0 0 0 0 0 0 0 0 0 0 0 0 0 0
17 17 18 18 16 12 9 5 3 3 3 3 3 2 1 0 1 2 2 1 0 0 0 0 0 0 0 0 0 0 0 0 0 0 0 0 0 0 0 0 0 0 0
Wind_Speed
7 9 16 17 16 16 16 16 16 16 16 16 16 15 15 14 13 12 12 11 11 11 11 10 10 10 10 11 12 12 13 13 13 14 14 14 14 15 15 15 14 11 16
12 12 18 17 17 16 16 16 16 16 16 16 15 14 14 13 13 12 11 11 11 11 11 11 11 11 12 12 12 12 12 12 13 13 13 13 14 14 14 15 14 10 15
14 12 15 17 17 16 16 15 15 15 15 15 14 14 13 13 12 11 11 11 11 11 12 12 12 12 12 12 12 12 12 12 12 13 13 8 10 13 14 14 14 14 14
15 11 13 18 17 17 16 16 15 15 15 14 14 13 13 12 11 11 11 11 11 12 12 12 12 12 12 12 12 12 12 12 13 12 7 7 8 12 14 14 14 14 14
12 10 13 20 18 17 16 15 15 15 14 13 13 13 12 12 11 11 11 11 11 11 12 12 12 12 12 12 12 11 11 12 13 10 7 6 6 12 13 14 13 14 14
11 9 13 19 18 17 16 16 15 14 14 13 12 12 12 11 11 11 11 11 11 11 11 12 12 12 11 11 10 10 11 12 10 7 7 6 6 11 13 13 13 13 13
11 9 12 19 18 17 17 16 15 14 14 13 12 12 11 11 11 10 11 11 11 11 11 11 11 10 10 10 9 10 11 12 8 7 6 5 6 11 12 13 13 12 12
13 10 11 19 19 18 17 16 15 14 13 13 12 11 11 11 10 10 10 10 10 10 10 10 10 9 9 9 9 10 11 11 8 7 6 5 8 10 12 12 12 12 12
10 9 8 10 13 17 17 16 15 14 13 13 12 11 11 10 10 10 9 10 10 10 9 9 9 8 8 8 8 9 10 11 7 5 6 4 8 11 11 11 11 11 11
8 8 7 7 7 8 10 15 15 14 13 12 12 11 11 10 9 9 8 9 9 9 9 8 8 7 7 7 7 8 10 10 6 5 4 5 9 11 11 11 11 11 11
10 7 7 7 7 7 7 12 13 13 13 12 10 12 9 4 4 5 6 8 9 8 8 8 7 7 6 6 7 8 8 4 5 4 3 6 9 10 10 10 10 10 10
13 10 7 7 7 7 7 6 4 5 5 5 4 5 4 3 3 4 5 8 8 8 7 6 6 6 5 3 5 6 3 5 4 3 3 8 8 9 9 9 9 9 9
12 11 9 8 8 7 4 4 3 3 3 4 4 5 4 3 2 2 1 2 3 4 3 3 4 3 2 2 2 3 3 3 2 2 4 8 8 9 9 9 8 8 8
11 11 10 9 7 6 5 4 4 3 3 3 4 5 4 2 2 2 1 1 2 1 2 2 2 2 2 2 3 3 4 3 2 2 3 8 7 7 8 8 8 8 8
12 11 10 10 9 7 5 5 5 4 4 4 3 4 4 3 3 2 1 1 1 1 2 1 1 1 1 2 2 3 4 4 3 3 2 7 7 6 7 8 8 8 8
11 10 9 9 8 7 5 5 5 5 4 4 3 4 5 3 3 3 2 2 1 1 1 1 1 1 1 1 1 2 3 3 3 3 2 3 6 6 7 7 7 8 8
11 10 10 9 7 7 6 6 5 5 5 4 4 4 5 4 4 3 3 2 2 2 2 2 2 2 1 1 1 2 2 2 3 3 3 2 2 5 6 7 7 7 8
11 10 10 10 9 7 6 5 4 5 5 4 4 4 5 5 5 4 3 3 2 2 2 2 2 2 1 1 1 1 1 2 3 3 2 2 2 2 4 7 7 7 8
12 11 10 8 9 8 6 5 4 5 5 4 4 4 5 5 6 4 3 3 3 3 2 2 2 2 2 2 1 1 0 1 2 2 3 3 3 3 2 4 5 6 8
11 11 11 9 9 8 5 4 3 3 3 3 4 4 5 5 6 5 3 3 4 3 2 2 2 2 2 2 2 2 1 0 1 2 3 3 3 4 4 3 3 4 7
10 11 11 11 10 8 6 5 5 4 3 3 4 5 6 6 6 5 4 4 4 3 4 4 3 3 2 2 2 2 2 1 1 2 2 2 3 4 4 4 3 3 3
11 11 11 12 12 11 7 5 4 4 3 3 2 3 5 6 6 6 6 5 4 4 4 3 3 3 2 1 2 2 1 2 2 1 1 3 3 3 4 5 4 4 4
10 11 11 11 11 10 9 5 4 3 2 2 3 3 4 6 6 6 6 5 5 4 4 4 4 4 3 1 1 3 3 2 2 2 1 2 2 2 3 3 5 5 5
9 9 9 9 10 9 10 9 9 7 6 5 4 4 4 4 5 5 6 6 5 4 4 4 4 3 4 2 1 1 1 3 2 1 2 1 2 3 3 3 4 5 5
7 7 7 8 8 9 10 11 9 6 5 4 4 5 4 4 5 5 6 5 5 4 4 4 4 4 3 3 3 2 2 1 1 2 1 2 1 2 2 3 3 3 4
5 6 6 7 8 8 9 9 10 9 8 7 6 6 4 3 3 4 5 5 5 4 5 5 4 5 3 3 2 2 3 3 2 2 2 1 1 2 1 2 2 3 3
Wind_Direction
156 155 152 145 139 132 126 122 120 118 118 119 120 121 121 121 120 119 118 116 115 114 112 113 114 114 114 113 114 116 116 117 118 118 118 116 115 114 114 112 109 108 111
147 153 153 148 142 136 130 126 124 122 122 122 123 124 123 123 122 121 120 118 117 116 115 113 114 115 114 113 114 116 117 119 119 118 118 117 117 116 114 113 112 113 115
144 151 153 150 145 140 135 132 129 128 126 126 126 126 126 125 124 123 121 119 118 116 114 113 114 115 115 114 114 115 116 117 118 114 110 107 115 119 117 115 114 114 116
145 148 152 152 148 144 140 137 134 133 131 131 130 128 127 127 126 122 120 119 118 116 116 116 114 114 113 113 114 113 112 111 111 107 98 105 113 119 118 115 116 117 116
143 147 156 154 151 148 145 143 141 138 136 135 134 132 131 130 127 125 123 120 119 119 118 116 114 114 113 113 113 113 112 111 109 103 98 98 105 120 120 118 119 118 117
143 147 159 155 154 152 150 148 146 144 143 140 138 136 135 133 131 129 126 123 121 119 117 115 114 114 113 112 113 114 114 111 103 101 101 103 111 123 122 121 121 120 119
146 150 160 158 157 155 154 153 150 150 149 145 143 141 139 137 134 132 129 125 123 121 120 118 117 116 114 113 114 114 115 115 106 104 102 106 117 124 123 122 121 120 118
150 152 159 161 159 158 158 158 156 155 153 150 147 145 142 140 137 136 133 131 128 125 124 122 121 118 113 111 114 119 122 122 116 111 106 112 125 124 124 123 123 122 121
150 150 154 159 161 163 162 161 161 159 156 154 151 148 146 143 140 138 136 135 132 130 129 127 124 119 114 110 115 122 128 127 118 119 121 118 129 130 129 128 127 127 126
148 150 150 151 153 157 161 164 164 161 161 158 155 153 152 149 146 140 136 138 136 135 134 131 127 121 116 114 119 126 128 123 120 118 117 132 136 136 135 133 131 130 130
159 154 149 150 147 146 154 169 165 164 166 162 159 159 149 122 121 131 144 145 143 141 137 134 128 123 111 110 119 123 119 119 123 122 127 142 143 141 138 137 134 133 133
170 166 160 156 152 150 164 160 151 151 153 143 137 133 114 114 131 141 164 156 151 144 138 136 130 116 94 83 101 107 108 125 127 135 148 151 151 147 143 139 138 138 137
169 170 168 164 159 157 153 144 136 128 129 130 132 125 123 118 123 116 109 129 117 120 98 102 93 90 99 102 103 111 125 125 132 143 159 158 157 155 150 147 146 143 142
170 175 169 166 161 158 150 148 141 139 140 141 143 141 137 136 135 132 120 105 87 86 98 88 91 104 115 128 134 137 140 140 142 141 166 165 165 165 160 157 158 156 152
176 178 171 169 169 162 154 157 155 153 153 151 150 155 155 156 160 155 147 137 130 122 126 123 116 125 131 132 145 150 153 155 154 148 160 175 171 174 173 169 168 166 166
179 176 171 171 169 162 163 164 160 159 155 155 162 172 170 166 166 165 166 166 165 162 157 151 153 142 139 135 144 153 154 151 155 155 161 180 184 184 185 182 178 178 180
177 173 173 172 168 172 171 173 165 162 159 166 174 179 179 175 173 171 175 183 185 168 150 126 113 106 121 130 138 147 148 156 163 170 172 177 191 200 198 195 192 190 192
169 172 176 179 173 179 179 172 167 166 166 172 175 180 186 184 176 170 178 188 172 152 143 133 123 112 110 131 146 154 143 159 175 179 182 189 198 213 217 211 205 202 203
170 169 172 176 174 181 181 174 170 164 169 171 173 181 188 186 179 172 178 179 161 147 150 153 125 133 144 150 160 137 133 196 197 197 206 208 210 219 224 229 224 217 219
165 166 169 176 180 176 169 165 160 157 167 166 176 186 184 184 177 168 172 172 158 147 149 144 132 110 116 132 115 84 31 272 225 223 227 220 217 223 224 228 230 237 237
166 169 173 179 177 171 171 178 172 175 173 174 183 182 182 181 175 169 171 165 162 161 165 153 128 119 104 107 91 53 15 2 257 239 234 230 227 226 222 223 222 226 241
177 179 180 183 179 179 180 175 162 149 158 170 172 180 183 182 176 177 171 170 165 151 150 152 137 127 113 120 126 103 28 347 328 269 234 230 232 223 229 230 225 223 231
184 187 187 185 180 177 171 152 134 115 106 139 167 188 194 185 180 175 174 165 162 161 165 167 156 146 146 134 135 143 149 219 292 317 284 249 235 227 234 235 233 231 228
191 187 183 176 174 173 169 167 166 172 178 187 181 185 187 185 176 172 168 163 164 165 165 170 159 150 145 153 139 108 139 154 157 304 321 303 261 237 237 236 235 234 230
180 179 176 168 170 173 175 176 176 180 177 165 166 173 179 181 175 172 166 163 166 167 168 160 152 156 153 157 160 148 127 96 119 149 268 313 309 262 244 238 238 240 234
168 169 170 169 173 174 177 180 180 180 172 169 179 181 180 175 175 174 167 167 167 165 166 164 158 162 161 153 154 156 157 158 178 169 188 246 285 301 290 256 241 243 238